This demonstration page uses our WeatherBlox Daily Observations layout. Learn more.

Left ArrowRight Arrow

Hourly Observations for January 11, 2023

Temp ( °F °C ) Dew Point ( °F °C ) Humidity (%) Winds ( mph kmh ) Pressure ( in mb ) Visibility ( mi km ) Precip ( " mm )
12:53 am 00:53 Clear 35 1.7 29 -1.7 78 78 NW 7 11 29.76 1008 10 16 0.00 0.00
1:53 am 01:53 Clear 34 1.1 29 -1.7 82 82 NNW 8 13 29.76 1008 10 16 0.00 0.00
2:53 am 02:53 Clear 37 2.8 30 -1.1 75 75 NNW 10 17 29.76 1008 10 16 0.00 0.00
3:53 am 03:53 Clear 39 3.9 31 -0.6 72 72 N 10 17 29.75 1008 10 16 0.00 0.00
4:53 am 04:53 Mostly Clear 36 2.2 29 -1.7 75 75 NNW 6 9 29.77 1008 10 16 0.00 0.00
5:53 am 05:53 Mostly Cloudy 36 2.2 28 -2.2 73 73 NE 8 13 29.75 1007 10 16 0.00 0.00
6:53 am 06:53 Mostly Cloudy 32 0 27 -2.8 81 81 WNW 6 9 29.80 1009 10 16 0.00 0.00
7:53 am 07:53 Mostly Cloudy 35 1.7 28 -2.2 75 75 NNW 3 6 29.79 1009 10 16 0.00 0.00
8:53 am 08:53 Cloudy 36 2.2 30 -1.1 79 79 Calm 29.80 1009 10 16 0.00 0.00
9:53 am 09:53 Cloudy 39 3.9 30 -1.1 70 70 Calm 29.81 1009 10 16 0.00 0.00
10:53 am 10:53 Cloudy 43 6.1 31 -0.6 62 62 ENE 8 13 29.77 1008 10 16 0.00 0.00
11:53 am 11:53 Cloudy 47 8.3 32 0 56 56 NE 5 7 29.73 1007 10 16 0.00 0.00
12:53 pm 12:53 Cloudy 49 9.4 33 0.6 54 54 NE 6 9 29.69 1005 10 16 0.00 0.00
1:53 pm 13:53 Cloudy 51 10.6 33 0.6 50 50 Calm 29.68 1005 10 16 0.00 0.00
2:53 pm 14:53 Mostly Cloudy 53 11.7 34 1.1 48 48 E 9 15 29.63 1004 10 16 0.00 0.00
3:53 pm 15:53 Mostly Cloudy 53 11.7 35 1.7 50 50 E 7 11 29.64 1004 10 16 0.00 0.00
4:53 pm 16:53 Mostly Cloudy 52 11.1 35 1.7 52 52 ENE 5 7 29.65 1004 10 16 0.00 0.00
5:53 pm 17:53 Mostly Cloudy 50 10 35 1.7 56 56 NNW 3 6 29.68 1005 10 16 0.00 0.00
6:53 pm 18:53 Cloudy 50 10 35 1.7 56 56 NE 13 20 29.71 1006 10 16 0.00 0.00
7:53 pm 19:53 Mostly Cloudy 48 8.9 32 0 54 54 NNE 14 22 29.75 1007 10 16 0.00 0.00
8:53 pm 20:53 Clear 43 6.1 31 -0.6 62 62 NNE 16 26 29.76 1008 10 16 0.00 0.00
9:53 pm 21:53 Clear 42 5.6 32 0 67 67 N 22 35 29.80 1009 10 16 0.00 0.00
10:53 pm 22:53 Mostly Clear 39 3.9 30 -1.1 70 70 N 21 33 29.85 1011 10 16 0.00 0.00
11:53 pm 23:53 Partly Cloudy 37 2.8 29 -1.7 72 72 N 21 33 29.89 1012 10 16 0.00 0.00

Powered by AerisWeather